DAL1825 KBDL-KJFK

Flight info

Callsign DAL1825
Flight time 0h 57m
Altitude 17000
Route DCT HFD T216 GON/N0363F160 T320 BOROS DCT CCC DCT ROBER DCT
Aircraft B738/M-SDE2E3FGHIRWXY/LB1

Departure

Time 2025-12-31 20:05
Airport Bradley International Airport (KBDL)

Arrival

Time 2025-12-31 21:03
Airport John F. Kennedy International Airport (KJFK)
Time Latitude Longitude Altitude Speed Heading
2025-12-31 19:24 41.93170 -72.68310 179 ft 0 kts 275°
2025-12-31 19:44 41.93168 -72.68273 179 ft 2 kts 274°
2025-12-31 19:45 41.93165 -72.68237 179 ft 0 kts 274°
2025-12-31 19:47 41.93191 -72.68258 179 ft 9 kts 344°
2025-12-31 19:48 41.93408 -72.68395 175 ft 4 kts 314°
2025-12-31 19:49 41.93601 -72.68660 177 ft 17 kts 312°
2025-12-31 19:49 41.93695 -72.68720 179 ft 16 kts 24°
2025-12-31 19:50 41.94013 -72.68340 179 ft 26 kts 43°
2025-12-31 19:50 41.94268 -72.68032 181 ft 23 kts 42°
2025-12-31 19:50 41.94383 -72.67882 180 ft 23 kts 45°
2025-12-31 19:51 41.94669 -72.67506 174 ft 33 kts 44°
2025-12-31 19:51 41.94934 -72.67162 175 ft 14 kts 43°
2025-12-31 19:52 41.94981 -72.67141 175 ft 0 kts 352°
2025-12-31 19:55 41.94983 -72.67142 175 ft 0 kts 334°
2025-12-31 20:03 41.95010 -72.67165 174 ft 10 kts 324°
2025-12-31 20:03 41.95009 -72.67296 174 ft 16 kts 223°
2025-12-31 20:04 41.93941 -72.68695 245 ft 187 kts 225°
2025-12-31 20:05 41.90726 -72.73145 2182 ft 231 kts 226°
2025-12-31 20:05 41.88514 -72.76154 3414 ft 226 kts 226°
2025-12-31 20:06 41.86309 -72.79148 5116 ft 226 kts 227°
2025-12-31 20:06 41.85188 -72.80642 5986 ft 228 kts 227°
2025-12-31 20:07 41.84463 -72.86715 8081 ft 246 kts 281°
2025-12-31 20:07 41.84862 -72.88957 8963 ft 248 kts 281°
2025-12-31 20:07 41.85635 -72.93531 10311 ft 265 kts 279°
2025-12-31 20:08 41.86473 -72.98793 10687 ft 310 kts 279°
2025-12-31 20:09 41.87859 -73.07732 12414 ft 333 kts 279°
2025-12-31 20:09 41.88797 -73.13880 13903 ft 340 kts 279°
2025-12-31 20:09 41.89272 -73.17002 14587 ft 343 kts 279°
2025-12-31 20:10 41.90230 -73.23338 15997 ft 350 kts 279°
2025-12-31 20:10 41.90085 -73.29808 17347 ft 356 kts 256°
2025-12-31 20:11 41.87905 -73.35892 18649 ft 365 kts 241°
2025-12-31 20:11 41.85236 -73.41714 19732 ft 372 kts 241°
2025-12-31 20:12 41.82764 -73.47925 19800 ft 379 kts 254°
2025-12-31 20:13 41.83611 -73.58107 19800 ft 383 kts 296°
2025-12-31 20:13 41.85233 -73.60963 19811 ft 390 kts 310°
2025-12-31 20:13 41.89395 -73.65698 19811 ft 394 kts 316°
2025-12-31 20:14 41.93706 -73.70244 19800 ft 394 kts 317°
2025-12-31 20:14 41.98030 -73.74772 19794 ft 394 kts 317°
2025-12-31 20:15 42.02347 -73.79285 19805 ft 393 kts 317°
2025-12-31 20:15 42.06666 -73.83798 19806 ft 393 kts 317°
2025-12-31 20:16 42.10978 -73.88303 19801 ft 392 kts 317°
2025-12-31 20:17 42.17412 -73.95024 19803 ft 392 kts 317°
2025-12-31 20:17 42.19593 -73.97305 19799 ft 392 kts 317°
2025-12-31 20:17 42.23896 -74.01810 19791 ft 391 kts 317°
2025-12-31 20:18 42.28165 -74.06285 19791 ft 391 kts 317°
2025-12-31 20:18 42.32466 -74.10801 19794 ft 391 kts 317°
2025-12-31 20:19 42.36759 -74.15315 19791 ft 391 kts 317°
2025-12-31 20:19 42.40699 -74.20269 19786 ft 383 kts 300°
2025-12-31 20:20 42.42293 -74.26947 19786 ft 374 kts 272°
2025-12-31 20:21 42.40016 -74.36829 19786 ft 381 kts 234°
2025-12-31 20:21 42.38074 -74.39298 19781 ft 388 kts 220°
2025-12-31 20:21 42.32915 -74.41808 19783 ft 410 kts 189°
2025-12-31 20:22 42.27281 -74.40164 19787 ft 434 kts 157°
2025-12-31 20:22 42.22732 -74.34631 19800 ft 448 kts 133°
2025-12-31 20:23 42.18812 -74.28051 19800 ft 450 kts 132°
2025-12-31 20:23 42.14896 -74.21450 19795 ft 450 kts 133°
2025-12-31 20:24 42.10938 -74.14923 19797 ft 449 kts 133°
2025-12-31 20:24 42.08948 -74.11676 19786 ft 449 kts 133°
2025-12-31 20:25 42.02979 -74.01979 19805 ft 448 kts 134°
2025-12-31 20:25 41.99000 -73.95527 19808 ft 448 kts 134°
2025-12-31 20:26 41.95012 -73.89073 19808 ft 448 kts 134°
2025-12-31 20:26 41.91049 -73.82673 19809 ft 448 kts 134°
2025-12-31 20:27 41.87059 -73.76240 19809 ft 448 kts 134°
2025-12-31 20:27 41.82425 -73.71015 19819 ft 428 kts 163°
2025-12-31 20:28 41.76753 -73.70132 19807 ft 404 kts 195°
2025-12-31 20:28 41.74102 -73.71184 19812 ft 394 kts 210°
2025-12-31 20:29 41.68269 -73.78311 19450 ft 382 kts 240°
2025-12-31 20:29 41.64914 -73.83744 19573 ft 389 kts 221°
2025-12-31 20:30 41.60338 -73.87729 19762 ft 393 kts 217°
2025-12-31 20:30 41.55723 -73.91604 19809 ft 392 kts 218°
2025-12-31 20:31 41.51121 -73.95535 19797 ft 392 kts 218°
2025-12-31 20:31 41.46523 -73.99492 19804 ft 394 kts 218°
2025-12-31 20:32 41.41919 -74.03454 19804 ft 394 kts 218°
2025-12-31 20:32 41.39612 -74.05432 19811 ft 395 kts 218°
2025-12-31 20:33 41.32928 -74.11131 18905 ft 357 kts 219°
2025-12-31 20:33 41.28896 -74.14563 17911 ft 333 kts 219°
2025-12-31 20:34 41.25151 -74.17760 17089 ft 314 kts 220°
2025-12-31 20:34 41.21354 -74.21026 16264 ft 344 kts 219°
2025-12-31 20:35 41.17358 -74.24429 15274 ft 328 kts 219°
2025-12-31 20:35 41.13600 -74.27617 14424 ft 320 kts 219°
2025-12-31 20:36 41.09811 -74.30835 13487 ft 326 kts 219°
2025-12-31 20:36 41.07904 -74.32435 12947 ft 324 kts 216°
2025-12-31 20:37 41.01140 -74.32117 11588 ft 355 kts 151°
2025-12-31 20:37 40.97965 -74.27049 10796 ft 358 kts 125°
2025-12-31 20:38 40.95424 -74.21618 10476 ft 337 kts 125°
2025-12-31 20:38 40.92975 -74.16542 10188 ft 318 kts 126°
2025-12-31 20:39 40.90644 -74.11777 9884 ft 302 kts 127°
2025-12-31 20:39 40.88757 -74.07927 9393 ft 298 kts 127°
2025-12-31 20:40 40.86513 -74.03357 8803 ft 294 kts 126°
2025-12-31 20:40 40.85404 -74.01102 8519 ft 292 kts 126°
2025-12-31 20:41 40.82119 -73.94436 7657 ft 285 kts 126°
2025-12-31 20:41 40.79975 -73.90088 7107 ft 281 kts 126°
2025-12-31 20:42 40.77843 -73.85795 6542 ft 277 kts 127°
2025-12-31 20:42 40.75875 -73.81463 5994 ft 275 kts 118°
2025-12-31 20:43 40.74227 -73.76938 5413 ft 272 kts 117°
2025-12-31 20:43 40.72618 -73.72471 4886 ft 268 kts 117°
2025-12-31 20:44 40.71038 -73.68089 4323 ft 264 kts 117°
2025-12-31 20:44 40.70254 -73.65902 4079 ft 263 kts 117°
2025-12-31 20:45 40.66115 -73.58913 3991 ft 231 kts 184°
2025-12-31 20:45 40.64570 -73.59028 3996 ft 216 kts 186°
2025-12-31 20:46 40.61639 -73.58976 3513 ft 204 kts 181°
2025-12-31 20:46 40.59065 -73.59629 3101 ft 181 kts 234°
2025-12-31 20:47 40.58962 -73.62738 2504 ft 176 kts 275°
2025-12-31 20:47 40.59778 -73.65650 2015 ft 159 kts 292°
2025-12-31 20:48 40.60291 -73.66868 1762 ft 145 kts 294°
2025-12-31 20:49 40.62084 -73.70856 1035 ft 123 kts 292°
2025-12-31 20:49 40.62972 -73.72782 688 ft 125 kts 294°
2025-12-31 20:50 40.63838 -73.74691 323 ft 121 kts 292°
2025-12-31 20:50 40.64698 -73.76644 35 ft 121 kts 294°
2025-12-31 20:51 40.65514 -73.78486 428 ft 140 kts 294°
2025-12-31 20:51 40.66697 -73.81284 1679 ft 196 kts 296°
2025-12-31 20:51 40.67399 -73.82814 2222 ft 194 kts 297°
2025-12-31 20:52 40.67066 -73.85847 2996 ft 198 kts 219°
2025-12-31 20:53 40.62851 -73.88428 2872 ft 231 kts 207°
2025-12-31 20:53 40.59738 -73.89132 2907 ft 241 kts 165°
2025-12-31 20:54 40.57230 -73.86067 3571 ft 258 kts 131°
2025-12-31 20:54 40.55207 -73.82125 3992 ft 262 kts 126°
2025-12-31 20:55 40.53268 -73.78072 4010 ft 262 kts 123°
2025-12-31 20:55 40.51395 -73.73952 3999 ft 262 kts 123°
2025-12-31 20:55 40.50462 -73.71889 3998 ft 262 kts 123°
2025-12-31 20:56 40.48733 -73.67675 3980 ft 265 kts 103°
2025-12-31 20:57 40.51303 -73.62850 4003 ft 212 kts 26°
2025-12-31 20:57 40.53642 -73.60949 3816 ft 184 kts 27°
2025-12-31 20:58 40.55855 -73.59722 3146 ft 160 kts 336°
2025-12-31 20:58 40.57522 -73.61555 2785 ft 159 kts 309°
2025-12-31 20:58 40.58214 -73.62656 2556 ft 154 kts 303°
2025-12-31 20:59 40.59416 -73.64954 2123 ft 151 kts 296°
2025-12-31 20:59 40.60392 -73.67095 1729 ft 125 kts 295°
2025-12-31 21:00 40.61262 -73.69028 1371 ft 123 kts 295°
2025-12-31 21:01 40.62566 -73.71945 771 ft 123 kts 296°
2025-12-31 21:01 40.63454 -73.73890 423 ft 124 kts 297°
2025-12-31 21:01 40.63889 -73.74860 244 ft 121 kts 297°
2025-12-31 21:02 40.65092 -73.77513 17 ft 86 kts 300°
2025-12-31 21:02 40.65322 -73.78026 17 ft 42 kts 301°
2025-12-31 21:03 40.65375 -73.78409 18 ft 11 kts 235°
2025-12-31 21:03 40.65327 -73.78523 15 ft 2 kts 213°
2025-12-31 21:04 40.65266 -73.78414 15 ft 12 kts 98°
2025-12-31 21:05 40.65124 -73.78064 15 ft 14 kts 120°
2025-12-31 21:05 40.65027 -73.77850 15 ft 14 kts 121°
2025-12-31 21:06 40.64897 -73.77760 15 ft 10 kts 120°
2025-12-31 21:06 40.64861 -73.77685 15 ft 7 kts 138°
2025-12-31 21:06 40.64862 -73.77756 15 ft 8 kts 330°
2025-12-31 21:07 40.64974 -73.77938 15 ft 13 kts 292°
2025-12-31 21:07 40.64905 -73.78072 15 ft 9 kts 195°
2025-12-31 21:08 40.64885 -73.78144 15 ft 0 kts 303°
2025-12-31 21:09 40.64892 -73.78158 15 ft 1 kts 304°
2025-12-31 21:09 40.64894 -73.78162 15 ft 0 kts 306°